Regional Weather Roundup
Issued by NWS

Home | Current Version | Previous Version | Graphics & Text | Print | Product List | Glossary On
Versions: 1 2 3 4 5 6 7 8 9 10 11 12 13 14 15 16 17 18 19 20 21 22 23 24 25 26 27 28 29 30 31 32 33 34 35 36 37 38 39 40 41 42 43 44 45 46 47 48 49 50
000
ASUS43 KFSD 262202
RWRSD

WEATHER ROUNDUP FOR SOUTH DAKOTA
NATIONAL WEATHER SERVICE SIOUX FALLS SD
500 PM CDT THU APR 26 2018

NOTE: "FAIR" INDICATES FEW OR NO CLOUDS BELOW 12,000 FEET WITH NO
SIGNIFICANT WEATHER AND/OR OBSTRUCTIONS TO VISIBILITY.


SDZ001>005-009-010-012>017-262300-
NORTHWEST AND NORTH CENTRAL SOUTH DAKOTA

CITY           SKY/WX    TMP DP  RH WIND       PRES   REMARKS
BUFFALO          N/A     65  27  23 W16G23    30.06F
FAITH            N/A     64  31  28 NW20G26   30.10F
MOBRIDGE       SUNNY     66  27  23 NW13      30.04F
$$

SDZ012>016-024>037-041>051-057-063-072>074-262300-
SOUTHWEST AND SOUTH CENTRAL SOUTH DAKOTA

CITY           SKY/WX    TMP DP  RH WIND       PRES   REMARKS
RAPID CTY ARPT SUNNY     64  30  27 N23       30.14F
PIERRE         SUNNY     66  24  20 NW21G31   30.08F
CUSTER         SUNNY     56  18  22 N7        30.19F
ELLSWORTH AFB  SUNNY     64  28  26 N18G25    30.13F
PHILIP         SUNNY     66  29  24 NW17G28   30.12F
PINE RIDGE     SUNNY     64  29  26 NW17G23   30.17F
SPEARFISH      FAIR      61  28  29 NW14G21   30.18F
WINNER         FAIR      65  27  23 N17G25    30.11F
$$

SDZ004>011-016>023-039-040-262300-
NORTHEAST SOUTH DAKOTA

CITY           SKY/WX    TMP DP  RH WIND       PRES   REMARKS
ABERDEEN       SUNNY     66  27  23 NW20G28   30.04F
WATERTOWN      SUNNY     58  29  33 N22G33    30.03F
BROOKINGS      SUNNY     57  30  35 N25G31    30.02F
SISSETON         N/A     62  30  29 N23       30.00F
$$

SDZ017-020-022-023-036>040-048>070-262300-
SOUTHEAST SOUTH DAKOTA

CITY           SKY/WX    TMP DP  RH WIND       PRES   REMARKS
SIOUX FALLS    MOSUNNY   60  30  32 NW21G35   30.03F
HURON          SUNNY     63  33  32 NW23G31   30.05F
CHAMBERLAIN    SUNNY     64  28  24 NW15      30.10F
MITCHELL       SUNNY     63  33  32 N22G32    30.08S
YANKTON        SUNNY     61  30  31 N21G29    30.07S
$$

ABBREVIATIONS USED IN REMARKS
   TC - TEMPERATURE IN CELSIUS
  WCI - WIND CHILL INDEX
   HX - HEAT INDEX
  VSB - VISIBILITY





USA.gov is the U.S. government's official web portal to all federal, state and local government web resources and services.